• Join FlightAware (Why Join?)
  • Login
  • US Flag 
06:13PM EST


 

Airport Tracker/Info


-or-


 

Live Flight TrackerFlight Track Log ✈ SKW4757 ✈ 05-Jun-2013 ✈ KMEM - KBNA

Flight Track Log - Related Links

Times and Time Zones

All times are in EDT time to prevent confusion due to time zone crossing. See the SKW4757 flight status page for this flight to view local times or setup timezone preferences in your user account.

Time Position Orientation Groundspeed Altitude Reporting Facility
EDT Latitude Longitude Course Direction KTS MPH feet Rate Location/Type
10:01AM 35.0500 -89.9833 73° East 161 185 800  Level KMEM
10:03AM 35.1333 -89.9667 North 242 278 2,400 1,945 Climbing KMEM
10:04AM 35.1833 -89.9167 39° Northeast 280 322 5,500 2,558 Climbing KMEM
10:05AM 35.1543 -89.4540 72° East  Level FlightAware Approximate
10:05AM 35.2000 -89.8167 78° East 300 345 7,900  Level KMEM
10:06AM 35.1883 -89.3270 72° East  Level FlightAware Approximate
10:06AM 35.2000 -89.7167 90° East 306 352 10,000  Level KMEM
10:06AM 35.2078 -89.6608 80° East 324 373 11,000 2,022 Climbing Memphis Center
10:07AM 35.2210 -89.1994 73° East  Level FlightAware Approximate
10:07AM 35.2153 -89.5514 85° East 353 406 13,100  Level Memphis Center
10:08AM 35.2208 -89.4344 87° East 348 400 15,000 1,750 Climbing Memphis Center
10:09AM 35.2261 -89.3175 87° East 349 402 16,600 1,600 Climbing Memphis Center
10:10AM 35.2333 -89.1853 86° East 349 402 18,200 1,450 Climbing Memphis Center
10:11AM 35.2656 -89.0703 71° East 349 402 19,500 1,300 Climbing Memphis Center
10:12AM 35.3081 -88.9603 65° Northeast 354 407 20,800 1,200 Climbing Memphis Center
10:13AM 35.3528 -88.8475 64° Northeast 360 414 21,900 1,050 Climbing Memphis Center
10:14AM 35.4119 -88.7419 55° Northeast 365 420 22,900 550 Climbing Memphis Center
10:15AM 35.4775 -88.6514 48° Northeast 377 434 23,000 50 Climbing Memphis Center
10:16AM 35.5658 -88.5603 40° Northeast 388 447 23,000  Level Memphis Center
10:17AM 35.6500 -88.4639 43° Northeast 407 468 23,000  Level Memphis Center
10:18AM 35.6769 -88.3253 77° East 393 452 23,000  Level Memphis Center
10:19AM 35.7036 -88.1814 77° East 404 465 23,000  Level Memphis Center
10:20AM 35.7242 -88.0506 79° East 404 465 23,000  Level Memphis Center
10:21AM 35.7486 -87.9067 78° East 414 476 23,000  Level Memphis Center
10:22AM 35.7708 -87.7653 79° East 414 476 23,000 -700 Level Memphis Center
10:23AM 35.7928 -87.6264 79° East 419 482 21,600 -2,450 Descending Memphis Center
10:24AM 35.7958 -87.4856 88° East 408 470 18,100 -3,000 Descending Memphis Center
10:25AM 35.7822 -87.3503 97° East 402 463 15,600 -2,450 Descending Memphis Center
10:26AM 35.8169 -87.2364 69° East 363 418 13,200 -2,100 Descending Memphis Center
10:27AM 35.8728 -87.1369 55° Northeast 343 395 11,400 -1,550 Descending Memphis Center
10:28AM 35.9286 -87.0400 55° Northeast 322 371 10,100 -1,200 Descending Memphis Center
10:29AM 35.9783 -86.9558 54° Northeast 306 352 9,000 -550 Descending Memphis Center
10:30AM 36.0242 -86.8769 54° Northeast 292 336 9,000 -50 Level Memphis Center
10:31AM 36.0703 -86.8081 50° Northeast 274 315 8,900 -750 Descending Memphis Center
10:32AM 36.1425 -86.7819 16° North 259 298 7,500 -1,350 Descending Memphis Center
10:33AM 36.2083 -86.7533 19° North 259 298 6,200 -1,100 Descending Memphis Center
10:34AM 36.2700 -86.7275 19° North 244 281 5,300 -950 Descending Memphis Center
10:35AM 36.3236 -86.7069 17° North 214 246 4,300 -1,150 Descending Memphis Center
10:36AM 36.3603 -86.6719 38° Northeast 166 191 3,000 -650 Descending Memphis Center
10:37AM 36.3314 -86.6192 124° Southeast 139 160 3,000  Level Memphis Center
10:38AM 36.2817 -86.6214 182° South 131 151 3,000  Level Memphis Center